星链-30184 (STARLINK-30184 )

导读 | 豆包AI

STARLINK-30184是美国SpaceX星链星座的成员卫星,于北京时间2023年7月10日发射入轨,属于星链低轨互联网通信卫星组网的组成部分。它延续了星链卫星的设计,为全球提供宽带互联网接入服务,补充了星链星座的覆盖能力,服务民用、商用及军事通信场景,目前在既定轨道参与星座运行组网。

基本信息
目录编号:
57310
目录名称:
STARLINK-30184
国际标识:
2023-096W
轨道中心:
EARTH
卫星名称:
星链-30184
卫星全名:
星链-30184 (STARLINK-30184 )
卫星状态:
在轨 (已飞行979 天)
发射日期:
2023-07-10 UTC
国别 :
美国 (US)
星等 :
--
轨道信息
数据来源 国际轨道数据
星历时间: 2026-03-15T22:14:15+0800
9小时前
查看轨道信息
半长轴: 6861.204km
偏心率: 0.0001326
轨道倾角: 42.997°
近地点辐角 263.824°
升交点赤经 161.122°
平近点角 96.246°
近地点: 482.157km
远地点: 483.977km
周期: 94.267分钟
每日圈数: 15.275743
详细信息
固有亮度:
5
最大亮度:
0.3
卫星平台:
Starlink v2.0 mini
覆盖范围:
全球
运营商:
太空探索技术公司
运营商所在国:
美国
制造商(研发单位):
太空探索技术公司
制造商所在国:
美国
使用方式:
暂无
卫星简介
星链(Starlink)计划是由太空探索技术公司(SpaceX)提出的一个巨型低轨卫星互联网星座项目,计划在2019年至2024年间在太空搭建由约1.2万颗卫星组成的“星链”网络,其中1584颗将部署在地球上空550千米处的近地轨道,并从2020年开始工作。该卫星仍在工作。
2D轨道图
3D轨道图
轨道高度分析图
轨道倾角分析图
轨道综合分析图
查看轨道综合分析图